TimeCST,TemperatureF,Dew PointF,Humidity,Sea Level PressureIn,VisibilityMPH,Wind Direction,Wind SpeedMPH,Gust SpeedMPH,PrecipitationIn,Events,Conditions,WindDirDegrees,DateUTC
12:53 AM,55.0,42.1,62,30.03,10.0,WNW,4.6,-,N/A,,Partly Cloudy,300,2013-02-11 06:53:00
1:53 AM,55.0,42.1,62,30.05,10.0,North,3.5,-,N/A,,Mostly Cloudy,350,2013-02-11 07:53:00
2:53 AM,53.1,42.1,66,30.04,10.0,Calm,Calm,-,N/A,,Clear,0,2013-02-11 08:53:00
3:53 AM,53.1,45.0,74,30.06,10.0,Calm,Calm,-,N/A,,Overcast,0,2013-02-11 09:53:00
4:53 AM,55.0,41.0,59,30.07,10.0,North,5.8,-,N/A,,Overcast,10,2013-02-11 10:53:00
5:53 AM,53.1,37.9,57,30.09,10.0,NNE,4.6,-,0.00,Rain,Light Rain,30,2013-02-11 11:53:00
6:53 AM,50.0,41.0,71,30.11,10.0,ENE,3.5,-,0.02,Rain,Light Rain,70,2013-02-11 12:53:00
7:53 AM,50.0,39.9,68,30.12,10.0,East,5.8,-,0.01,,Partly Cloudy,90,2013-02-11 13:53:00
8:53 AM,50.0,41.0,71,30.15,10.0,NE,5.8,-,0.00,,Overcast,50,2013-02-11 14:53:00
9:53 AM,52.0,39.9,63,30.13,10.0,ENE,9.2,-,N/A,,Clear,70,2013-02-11 15:53:00
10:53 AM,54.0,37.9,55,30.16,10.0,East,9.2,18.4,N/A,,Overcast,80,2013-02-11 16:53:00
11:53 AM,54.0,39.9,59,30.17,10.0,ESE,10.4,-,N/A,,Scattered Clouds,110,2013-02-11 17:53:00
12:53 PM,55.9,39.0,53,30.15,10.0,ENE,9.2,-,N/A,,Scattered Clouds,60,2013-02-11 18:53:00
1:53 PM,57.0,37.0,47,30.13,10.0,East,5.8,-,N/A,,Overcast,80,2013-02-11 19:53:00
2:53 PM,57.0,37.0,47,30.11,10.0,East,10.4,-,N/A,,Overcast,100,2013-02-11 20:53:00
3:53 PM,55.0,42.1,62,30.10,10.0,ESE,6.9,-,0.00,,Overcast,120,2013-02-11 21:53:00
4:53 PM,53.1,46.9,80,30.08,10.0,East,5.8,-,0.02,,Overcast,100,2013-02-11 22:53:00
5:53 PM,52.0,48.0,86,30.12,10.0,Calm,Calm,-,0.02,,Overcast,0,2013-02-11 23:53:00
6:53 PM,52.0,46.9,83,30.10,10.0,East,3.5,-,0.00,,Overcast,90,2013-02-12 00:53:00
7:53 PM,51.1,48.0,89,30.11,10.0,East,4.6,-,0.00,,Overcast,90,2013-02-12 01:53:00
8:53 PM,51.1,46.9,86,30.14,10.0,Calm,Calm,-,0.01,,Overcast,0,2013-02-12 02:53:00
9:53 PM,50.0,46.0,86,30.13,10.0,East,4.6,-,0.01,Rain,Light Rain,80,2013-02-12 03:53:00
10:53 PM,48.9,46.9,93,30.11,10.0,East,9.2,-,0.03,Rain,Light Rain,90,2013-02-12 04:53:00
11:53 PM,48.9,46.9,93,30.12,9.0,East,4.6,-,0.02,Rain,Light Rain,90,2013-02-12 05:53:00